CARTOSAT 2A

Satellite information

Favourite Embed

Satellite Type and Status

PAYLOADIN ORBIT

Key statistics

Satellite CARTOSAT 2A at a glance.

Uptime

6280

Days in orbit

Revolutions

≈ 14.8

Per day

Orbit

SSO

Sun Synchronous Orbit

Inclination

97.8

Latest

Satellite identification and parameters

Extended collection of information and parameters for CARTOSAT 2A.

Object identification

Identified? True

Debris? False

Object name: CARTOSAT 2A

International designator: 2008-021A

Object number (NORAD): 32783

Object ID (CCSDS): 32783

Country: INDIA (IND)

Current information (Y/N): Y

RCS size: LARGE

Orbital parameters

Period: 97.381 minutes

Inclination: 97.8137 deg

SMA: 7011.498 km

Apoapsis: 641.795 km

Periapsis: 624.931 km

RAAN: 243.5058 deg

Eccentricy: 0.0012026

Argument of periapsis: 144.8497 deg

Mean anomaly: 215.351 deg

Mean motion: 14.7872212 rev/day

Mean motion (dot): 0.00000542 rev/day2

B* drag term: 0.000080577 1/REarth

Two-line elements (TLE)

Creation date: July 8, 2025, 2:27 a.m.

Reference frame: TEME

Reference center: EARTH

Epoch: July 7, 2025, 10:40 p.m. UTC

TLE line 0: 0 CARTOSAT 2A

TLE line 1: 1 32783U 08021A 25188.94499865 .00000542 00000-0 80577-4 0 9994

TLE line 2: 2 32783 97.8137 243.5058 0012026 144.8497 215.3510 14.78722120927925

Live tracking on map

Real-time ground track for satellite CARTOSAT 2A.

In-orbit conjunctions

There are no conjunctions computed for CARTOSAT 2A, at the moment. Check back to stay up to date, as we update our databases every day.

Go to all conjunctions

Associated space launch

Indian Earth observation satellite. Launched alongside 9 nanosatellites.

CARTOSAT 2A was lifted into orbit during the mission ‘PSLV | Cartosat 2A’, on board a PSLV space rocket.

The launch took place on April 28, 2008, 3:53 a.m. from Satish Dhawan Space Centre Second Launch Pad.

For more information about the launch, click the button.

Launch to space PSLV | Cartosat 2A
PSLV | Cartosat 2A

Agency: N/A

Status: Launch Successful

Launch date: April 28, 2008, 3:53 a.m. UTC

Rocket: PSLV

Launch pad: Satish Dhawan Space Centre Second Launch Pad

Location: Satish Dhawan Space Centre, India

...

Latest news about this satellite

There are no fresh news available about this satellite. Check back as we update our databases every day.


Newsletter sign-up

Weekly statistics, charts and insights to help you stay on top of the space industry.